Temperature
1 1 1 1 1 1 1 1 2 2 2 2 2 1 1 2 2 2 2 2 2 2 2 2 2 2 2 2 2 2 1 1 1 1 1 1 1 1 1 1 1 1 0 0
-0 1 1 0 0 1 1 1 1 1 1 1 2 2 1 1 1 1 1 1 2 2 2 2 2 2 1 1 1 1 1 1 1 1 1 1 0 0 0 0 0 -0 -0 -0
-1 -1 0 0 -0 -0 -0 -0 0 1 1 0 -0 -0 0 1 1 1 1 1 1 1 1 1 1 1 1 1 0 0 0 0 0 0 0 0 -0 -0 -0 -0 -1 -1 -1 -1
-2 -1 0 1 -0 -0 -0 -1 -1 -1 -0 -0 0 1 1 1 1 1 1 1 1 1 1 1 1 0 0 0 -0 -0 -0 -0 -1 -1 -1 -1 -1 -1 -1 -1 -1 -1 -1 -2
-2 -1 -1 0 -0 -1 -1 -1 -1 -1 -1 -1 -0 -0 -0 1 1 1 1 1 1 1 1 0 0 -0 -0 -0 -1 -1 -1 -1 -1 -1 -1 -1 -1 -1 -2 -2 -2 -2 -2 -2
-3 -1 -1 1 -0 -1 -1 -1 -1 -2 -2 -2 -2 -2 -1 1 1 1 0 0 0 0 -0 -0 -0 -1 -1 -1 -1 -1 -1 -2 -2 -2 -2 -2 -2 -2 -2 -2 -2 -3 -3 -3
-3 -2 -1 -1 -1 -1 -0 0 -1 -1 -1 -2 -2 -1 -0 0 0 -0 -0 -0 -0 -0 -1 -1 -1 -1 -1 -2 -2 -2 -2 -2 -2 -2 -2 -2 -2 -2 -3 -3 -3 -3 -3 -3
-3 -2 -1 -2 -2 -1 -1 -0 -0 -0 -1 -1 -1 -1 -1 -0 -0 -1 -1 -1 -1 -1 -1 -2 -2 -2 -2 -2 -2 -2 -3 -3 -3 -3 -3 -3 -3 -3 -3 -3 -3 -3 -3 -3
-3 -1 -2 -2 -1 -0 -0 -0 -0 -0 -0 -1 -1 -1 -1 -1 -1 -1 -1 -1 -2 -2 -2 -2 -2 -2 -2 -2 -3 -3 -3 -3 -3 -3 -3 -3 -3 -3 -3 -4 -4 -4 -4 -4
-4 -4 -3 -2 -1 -0 -0 -0 -0 -1 -1 -1 -1 -1 -2 -2 -2 -2 -2 -2 -2 -3 -3 -3 -3 -3 -3 -3 -3 -3 -3 -3 -3 -4 -4 -4 -4 -4 -4 -4 -4 -4 -4 -4
-4 -4 -3 -2 -1 -0 -1 -1 -1 -1 -1 -2 -2 -2 -2 -2 -3 -3 -3 -3 -3 -3 -3 -3 -3 -3 -3 -3 -4 -4 -4 -4 -4 -4 -4 -4 -4 -4 -4 -4 -5 -5 -5 -5
-3 -3 -3 -2 -1 -1 -1 -1 -1 -2 -2 -2 -2 -2 -3 -3 -3 -3 -3 -3 -4 -4 -4 -4 -4 -4 -4 -4 -4 -4 -4 -4 -4 -4 -4 -4 -4 -4 -5 -5 -5 -5 -5 -5
-1 -1 -2 -2 -2 -2 -2 -2 -2 -2 -3 -3 -3 -3 -3 -3 -4 -4 -4 -4 -4 -4 -4 -4 -4 -4 -4 -4 -4 -4 -4 -4 -4 -5 -5 -5 -5 -5 -5 -5 -5 -5 -5 -5
-2 -2 -3 -2 -2 -3 -3 -3 -3 -3 -3 -3 -4 -4 -4 -4 -4 -4 -4 -4 -4 -4 -4 -4 -4 -4 -4 -5 -5 -5 -5 -5 -5 -5 -5 -5 -5 -5 -5 -5 -5 -5 -5 -5
-3 -2 -3 -3 -3 -3 -4 -4 -4 -4 -4 -4 -4 -4 -4 -5 -5 -5 -5 -5 -5 -5 -5 -5 -5 -5 -5 -5 -5 -5 -5 -5 -5 -5 -6 -6 -6 -6 -6 -6 -6 -6 -5 -5
-3 -3 -3 -3 -4 -4 -4 -4 -4 -4 -5 -5 -5 -5 -5 -5 -5 -5 -5 -5 -5 -5 -5 -5 -5 -5 -5 -5 -5 -5 -5 -6 -6 -6 -6 -6 -6 -6 -6 -6 -6 -6 -6 -6
-4 -4 -4 -4 -4 -4 -5 -5 -5 -5 -5 -5 -5 -5 -5 -5 -5 -5 -5 -5 -5 -5 -5 -5 -5 -6 -6 -6 -6 -6 -6 -6 -6 -6 -6 -6 -6 -6 -6 -6 -6 -6 -6 -6
-4 -4 -4 -4 -5 -5 -5 -5 -5 -5 -5 -6 -6 -6 -6 -6 -6 -6 -6 -6 -6 -6 -6 -6 -6 -6 -6 -6 -6 -6 -6 -6 -6 -7 -7 -7 -7 -7 -7 -7 -7 -7 -7 -7
-5 -5 -5 -5 -5 -5 -5 -5 -5 -6 -6 -6 -6 -6 -6 -6 -6 -6 -6 -6 -6 -6 -6 -6 -6 -6 -6 -6 -6 -6 -7 -7 -7 -7 -7 -7 -7 -7 -7 -7 -7 -7 -7 -7
-5 -5 -5 -5 -5 -5 -5 -5 -6 -6 -6 -6 -6 -6 -6 -6 -7 -7 -7 -7 -7 -7 -7 -7 -7 -7 -7 -7 -7 -7 -7 -7 -7 -7 -7 -7 -7 -7 -7 -7 -7 -7 -7 -7
-5 -5 -5 -5 -5 -5 -6 -6 -6 -6 -6 -6 -6 -7 -7 -7 -7 -7 -7 -7 -7 -7 -7 -7 -7 -7 -7 -7 -7 -7 -7 -7 -7 -7 -7 -7 -7 -7 -7 -7 -7 -8 -8 -8
-5 -6 -6 -6 -6 -6 -6 -6 -6 -6 -6 -7 -7 -7 -7 -7 -7 -7 -7 -7 -7 -7 -7 -7 -7 -8 -8 -7 -7 -7 -7 -7 -7 -7 -8 -8 -8 -8 -8 -8 -8 -8 -8 -8
-6 -6 -6 -6 -6 -6 -6 -7 -7 -7 -7 -7 -7 -7 -7 -7 -7 -7 -7 -7 -7 -8 -8 -8 -8 -8 -8 -8 -8 -8 -8 -8 -8 -8 -8 -8 -8 -8 -8 -8 -8 -8 -8 -8
-6 -6 -7 -7 -7 -7 -7 -7 -7 -7 -7 -7 -8 -8 -8 -8 -8 -8 -8 -8 -8 -8 -8 -8 -8 -8 -8 -8 -8 -8 -8 -8 -8 -8 -8 -8 -8 -8 -8 -8 -8 -8 -8 -8
-7 -7 -7 -7 -7 -7 -7 -7 -7 -8 -8 -8 -8 -8 -8 -8 -8 -8 -8 -8 -8 -8 -8 -8 -8 -8 -8 -8 -8 -8 -8 -8 -8 -8 -8 -8 -8 -8 -8 -8 -8 -8 -8 -8
-7 -7 -7 -7 -7 -8 -8 -8 -8 -8 -8 -8 -8 -8 -8 -8 -8 -8 -8 -8 -8 -8 -8 -8 -8 -8 -8 -8 -8 -8 -8 -8 -8 -8 -8 -8 -8 -8 -8 -8 -9 -9 -9 -9
-8 -8 -8 -8 -8 -8 -8 -8 -8 -8 -8 -8 -8 -9 -9 -9 -9 -9 -8 -8 -9 -9 -9 -8 -9 -9 -9 -9 -9 -9 -9 -9 -9 -9 -9 -9 -9 -9 -9 -9 -9 -9 -9 -9
Wind_Speed
4 3 3 5 6 7 8 8 8 6 7 8 6 5 3 2 1 1 2 2 2 2 2 1 1 1 1 0 0 0 1 1 1 1 0 0 0 1 1 1 1 1 1 1
3 2 2 4 6 8 9 7 7 6 8 6 3 2 2 2 3 3 3 3 3 2 2 2 1 1 1 1 0 1 1 1 0 0 0 0 0 0 1 1 1 1 1 1
3 2 2 6 8 9 5 5 7 10 10 3 3 4 5 5 5 5 5 4 4 4 3 3 3 2 2 2 1 1 1 1 0 0 0 0 0 1 1 1 1 1 1 1
1 2 6 7 3 6 7 5 7 6 5 5 6 5 4 4 5 5 5 4 4 3 3 2 2 1 1 1 1 1 1 1 1 1 1 0 0 0 1 0 1 1 1 1
3 3 7 6 3 4 5 5 6 8 8 5 2 1 3 4 5 6 5 4 4 4 3 2 2 2 2 1 1 1 1 2 2 2 1 1 1 1 1 0 1 1 1 1
4 4 7 6 2 2 3 5 4 6 7 4 2 2 5 3 2 3 3 3 3 2 2 2 2 2 2 2 1 2 2 2 2 2 2 2 2 1 1 1 1 1 2 2
5 5 7 5 2 4 4 6 2 4 4 4 6 6 3 1 1 1 2 2 2 3 3 3 3 3 2 2 3 3 2 2 2 2 2 2 2 1 1 1 1 1 2 2
6 5 8 3 5 6 6 1 2 3 3 4 5 3 2 1 1 1 1 1 2 2 2 2 2 3 3 3 3 2 1 1 1 2 2 1 2 1 1 2 1 1 2 3
8 7 3 4 5 4 2 2 2 3 3 3 3 3 2 2 2 2 2 2 1 2 2 1 2 3 3 3 2 1 1 2 2 2 2 2 2 2 2 2 2 2 2 3
4 6 5 4 4 3 3 3 3 2 2 3 4 3 3 2 2 2 2 2 1 2 2 2 2 2 3 2 2 1 2 2 2 2 2 2 2 2 2 2 2 3 2 3
4 4 3 4 4 4 3 2 1 1 2 3 3 3 3 3 3 2 2 1 2 2 2 3 2 2 2 2 2 2 2 2 2 2 2 2 2 2 3 4 4 4 3 3
7 6 5 5 4 3 2 3 3 2 2 2 3 4 3 3 3 2 2 2 2 2 2 3 3 3 3 2 3 3 2 3 2 2 2 2 2 2 4 4 5 6 5 5
4 3 4 2 1 1 2 2 2 2 3 2 2 3 3 3 2 2 2 2 3 3 3 3 3 3 3 2 3 3 4 3 3 3 3 2 2 2 2 3 4 5 5 6
2 1 1 2 2 1 1 1 0 0 1 1 2 1 2 2 2 2 3 3 3 2 3 3 3 4 4 3 3 3 4 4 3 3 3 3 2 2 2 2 3 3 4 5
2 2 3 2 1 1 0 1 1 1 1 1 1 1 2 2 3 3 2 2 2 2 3 3 3 4 3 2 3 3 3 3 3 3 3 3 2 2 2 2 3 3 3 4
1 0 1 1 1 1 0 0 1 2 2 1 1 2 2 2 2 2 2 2 2 3 3 3 4 4 3 3 3 3 3 4 3 3 3 2 2 2 2 2 3 3 3 3
2 2 2 2 3 3 3 3 3 3 2 2 2 1 0 0 1 1 2 2 2 3 3 4 4 4 3 3 3 2 2 3 4 3 2 3 2 3 3 3 3 3 3 4
4 4 4 4 4 4 3 3 2 2 2 2 1 1 1 1 2 2 2 2 2 3 3 4 3 3 2 2 2 2 2 2 2 2 2 2 2 3 3 3 3 4 3 4
2 2 2 3 3 3 3 3 2 2 1 1 1 1 2 2 2 2 1 1 2 3 3 3 3 2 2 3 2 1 2 2 2 2 2 3 3 2 2 3 3 4 4 3
1 1 1 1 1 1 2 2 1 1 1 1 1 1 1 2 2 1 1 2 3 3 3 3 3 2 2 2 2 1 2 2 2 2 2 2 2 2 3 3 3 3 4 4
1 1 1 1 1 1 1 1 1 1 1 1 2 2 2 2 2 1 1 2 3 3 3 3 2 2 2 2 2 1 1 2 2 2 2 2 2 2 3 3 3 3 3 3
1 1 1 1 0 1 1 0 1 1 1 1 1 1 1 2 2 2 2 3 3 4 2 2 2 3 2 1 1 1 2 2 2 2 2 2 2 3 3 3 3 3 3 3
1 1 1 1 1 1 1 1 0 0 1 1 2 2 2 2 2 2 3 2 2 3 2 2 3 4 2 1 1 1 2 2 2 2 2 2 2 3 3 3 3 3 3 3
1 1 1 0 1 1 1 1 1 1 1 2 2 2 2 2 2 2 3 4 4 4 2 4 4 4 2 1 1 1 2 2 2 2 2 2 2 2 3 3 3 3 3 4
1 1 1 1 1 1 1 1 1 1 1 1 2 2 2 2 2 3 3 3 4 4 3 4 4 4 2 1 1 1 2 2 2 2 2 2 2 3 3 3 3 3 4 4
1 1 1 1 1 1 1 0 0 1 1 1 2 2 2 2 2 2 2 3 3 3 3 2 2 2 1 1 1 2 2 2 3 2 2 2 3 3 3 3 4 4 4 4
0 0 0 0 0 0 0 1 1 1 1 1 2 2 2 2 2 2 2 2 2 2 2 2 2 1 1 1 1 1 1 2 2 2 2 3 3 3 3 4 3 4 4 4
Wind_Direction
244 243 199 218 222 198 202 206 208 227 225 246 242 234 231 222 195 172 185 185 189 190 191 181 165 164 162 159 194 177 156 175 226 246 244 236 275 296 322 329 330 344 352 341
279 265 236 255 243 219 221 221 224 241 256 253 243 201 206 214 199 208 217 214 211 205 198 203 206 212 203 210 238 182 177 225 260 209 132 107 308 343 360 349 355 11 354 333
249 307 2 266 232 208 210 211 199 225 239 226 225 225 221 215 211 218 222 222 212 209 211 215 215 207 206 212 202 187 198 217 224 200 184 235 312 16 347 355 10 6 352 342
152 80 234 246 214 194 201 230 216 219 240 226 227 236 229 213 212 225 228 223 221 212 212 217 209 193 189 182 186 198 214 223 220 197 192 207 183 270 303 334 353 335 328 322
155 221 272 284 243 174 187 254 228 226 246 254 257 321 284 241 218 222 224 223 220 208 202 190 187 180 160 173 185 199 221 229 232 212 207 219 227 246 270 292 303 300 306 308
159 192 237 249 218 170 123 274 238 210 234 235 145 233 262 259 239 238 234 219 203 181 165 174 194 170 156 182 196 231 242 237 231 222 217 222 225 233 248 260 271 293 305 293
188 221 257 251 204 131 169 241 228 198 221 200 201 224 252 257 263 245 236 208 176 165 174 194 192 167 170 195 229 249 260 246 232 232 230 224 216 222 222 242 270 286 295 300
175 209 248 210 145 182 212 205 181 202 218 217 226 240 244 234 230 224 211 187 171 168 190 201 184 168 185 223 241 243 250 254 250 248 243 235 206 221 221 215 235 267 289 303
194 213 243 183 195 217 186 203 221 215 231 211 211 228 229 232 227 236 217 208 188 171 191 225 205 183 204 236 225 208 242 257 260 266 255 238 214 217 225 224 230 258 266 285
235 256 251 238 248 252 221 221 233 219 218 199 210 219 222 222 230 236 232 209 192 173 194 237 241 222 218 227 212 200 239 255 254 245 251 246 239 226 223 229 235 248 256 270
241 263 292 268 236 235 236 230 228 233 214 205 197 220 219 223 230 231 235 242 207 205 225 246 247 248 242 221 196 213 243 248 249 247 246 247 252 239 240 240 238 242 243 247
222 216 200 233 232 209 203 222 226 232 252 231 206 220 224 230 234 226 227 230 225 229 237 251 250 255 256 232 207 210 241 242 235 240 244 239 249 283 277 266 273 273 271 271
215 204 199 229 257 195 206 235 245 229 228 248 250 219 215 230 241 231 232 232 233 238 246 251 254 261 261 238 224 220 230 237 232 235 235 236 241 252 286 305 296 289 289 290
205 154 216 225 230 240 223 240 249 319 271 239 243 235 216 227 233 230 238 245 247 248 254 256 258 266 267 245 232 232 233 236 233 229 231 235 238 245 252 272 295 301 302 299
260 222 213 218 254 328 43 85 81 338 319 312 248 220 212 216 233 250 258 259 261 259 261 259 262 271 272 250 237 236 233 232 230 227 228 231 235 239 246 258 271 287 300 305
243 252 170 192 243 255 57 170 221 260 273 271 267 261 249 242 248 260 263 246 234 255 264 264 267 273 273 256 246 243 236 238 237 228 229 232 232 234 242 253 266 275 282 290
185 225 225 232 234 239 233 230 227 239 250 255 255 252 256 304 293 279 277 268 257 265 267 265 269 279 272 252 237 238 233 235 239 239 227 230 231 237 240 244 254 266 276 285
217 221 215 211 218 232 245 242 235 236 239 243 234 181 191 221 251 270 279 289 299 302 288 274 269 274 276 260 239 226 222 226 226 232 235 233 237 237 242 248 254 261 275 284
208 213 218 218 219 219 228 239 245 244 241 202 186 210 242 255 257 266 279 287 285 288 291 285 290 292 283 275 266 219 216 226 239 245 241 247 255 247 247 251 258 263 269 275
206 205 203 219 222 204 222 242 238 243 244 199 185 206 262 277 271 263 259 270 262 264 275 283 287 280 272 269 268 220 217 227 236 244 246 244 247 251 252 256 261 266 270 275
215 202 189 220 258 262 224 213 202 225 247 203 197 221 247 271 270 246 243 284 294 288 282 290 296 279 263 257 258 221 221 232 235 239 243 245 248 255 259 263 268 272 275 278
228 216 228 238 214 311 313 264 188 207 245 260 256 246 256 282 285 277 258 254 273 295 303 282 280 281 279 263 225 223 230 236 242 243 247 247 248 254 260 264 269 274 277 278
227 224 226 229 214 253 347 4 335 207 245 263 261 256 254 264 261 255 286 288 276 289 305 282 292 297 292 276 237 232 232 237 243 244 246 249 251 255 262 267 271 272 274 277
214 207 208 154 113 103 37 328 323 309 287 289 279 263 254 275 293 276 272 291 304 305 305 297 305 303 305 303 251 245 243 246 249 248 248 252 256 259 261 266 270 272 273 276
195 179 143 131 134 201 259 311 350 353 348 325 313 303 287 257 260 284 293 291 299 313 312 304 306 307 316 294 266 263 261 255 249 246 246 250 256 260 264 267 270 274 277 278
190 203 218 218 213 221 231 234 283 306 319 326 326 322 323 317 299 298 303 302 299 310 315 305 300 294 291 270 265 269 267 272 277 276 267 264 266 268 270 273 277 276 278 279
134 122 76 12 343 256 217 213 236 278 283 283 301 312 320 324 324 324 320 317 314 315 313 312 310 286 276 271 275 276 275 272 271 270 269 268 267 268 269 269 272 275 279 280
Height
1491 1489 1490 1490 1489 1490 1491 1489 1490 1486 1486 1481 1479 1480 1480 1480 1480 1480 1480 1481 1481 1481 1482 1483 1483 1484 1484 1485 1485 1485 1485 1485 1485 1485 1485 1485 1484 1484 1483 1482 1481 1481 1480 1480
1492 1489 1489 1489 1487 1486 1486 1485 1486 1485 1483 1477 1477 1478 1478 1478 1478 1478 1479 1479 1479 1480 1480 1480 1481 1481 1482 1482 1482 1482 1482 1482 1482 1482 1482 1482 1481 1480 1480 1479 1478 1478 1477 1477
1494 1492 1488 1488 1482 1482 1482 1481 1481 1480 1476 1475 1476 1476 1475 1475 1476 1476 1476 1476 1477 1477 1477 1478 1479 1479 1479 1479 1479 1480 1479 1479 1479 1479 1479 1478 1478 1477 1477 1476 1475 1474 1474 1473
1498 1496 1493 1477 1474 1474 1476 1476 1476 1473 1472 1472 1472 1472 1473 1473 1473 1473 1473 1474 1474 1474 1475 1476 1476 1476 1476 1477 1477 1477 1477 1477 1477 1476 1476 1475 1475 1474 1474 1473 1472 1471 1470 1470
1498 1495 1486 1477 1472 1473 1475 1474 1471 1471 1470 1470 1470 1470 1470 1470 1470 1470 1470 1471 1471 1472 1472 1473 1473 1473 1474 1474 1474 1474 1474 1474 1474 1473 1473 1472 1472 1471 1471 1470 1469 1468 1468 1467
1496 1492 1486 1471 1469 1469 1472 1473 1466 1466 1466 1467 1469 1472 1467 1466 1466 1467 1468 1468 1469 1469 1469 1470 1470 1471 1471 1470 1471 1471 1471 1471 1471 1471 1470 1469 1469 1469 1468 1467 1467 1466 1465 1465
1491 1490 1479 1469 1467 1469 1475 1468 1463 1462 1463 1464 1465 1465 1464 1463 1463 1464 1464 1465 1465 1466 1466 1467 1467 1467 1467 1468 1468 1468 1468 1468 1468 1467 1467 1467 1466 1466 1465 1465 1464 1463 1462 1462
1487 1487 1477 1465 1466 1467 1464 1461 1461 1461 1461 1461 1461 1461 1461 1461 1460 1461 1461 1462 1462 1463 1463 1464 1464 1464 1464 1465 1465 1465 1465 1464 1464 1464 1464 1464 1463 1463 1462 1462 1461 1460 1460 1459
1471 1468 1462 1460 1460 1459 1460 1460 1460 1459 1459 1459 1458 1458 1458 1458 1458 1458 1458 1459 1459 1460 1460 1460 1461 1461 1461 1462 1462 1461 1461 1461 1461 1461 1461 1460 1460 1460 1459 1459 1458 1457 1457 1456
1467 1462 1459 1458 1458 1458 1458 1458 1458 1458 1458 1457 1456 1456 1456 1456 1456 1456 1456 1456 1456 1456 1457 1457 1458 1458 1458 1458 1458 1458 1458 1458 1458 1457 1457 1457 1457 1457 1456 1456 1455 1455 1454 1453
1463 1459 1457 1455 1455 1455 1455 1456 1456 1455 1455 1455 1454 1454 1453 1453 1453 1453 1453 1453 1454 1454 1453 1454 1454 1454 1455 1455 1455 1455 1454 1454 1454 1454 1454 1454 1454 1454 1453 1453 1453 1452 1451 1450
1456 1453 1454 1453 1452 1453 1453 1453 1453 1453 1452 1452 1452 1451 1451 1450 1450 1450 1450 1450 1450 1450 1451 1451 1451 1451 1451 1452 1452 1451 1451 1451 1451 1451 1451 1450 1450 1450 1450 1450 1450 1449 1449 1448
1449 1449 1450 1450 1450 1451 1450 1450 1450 1450 1449 1449 1449 1448 1448 1447 1448 1448 1448 1447 1447 1447 1447 1448 1448 1448 1448 1448 1448 1448 1448 1448 1448 1448 1447 1447 1447 1447 1446 1447 1447 1446 1445 1444
1447 1448 1448 1448 1448 1448 1448 1448 1447 1447 1447 1446 1446 1445 1445 1444 1445 1445 1445 1445 1445 1444 1444 1444 1444 1444 1445 1445 1445 1445 1445 1445 1445 1444 1444 1444 1444 1444 1443 1443 1442 1442 1442 1441
1445 1446 1446 1446 1446 1446 1445 1445 1444 1444 1444 1443 1443 1442 1442 1441 1441 1442 1442 1442 1442 1441 1441 1441 1441 1441 1441 1441 1441 1441 1441 1441 1441 1441 1441 1441 1441 1440 1440 1440 1439 1438 1438 1437
1443 1443 1443 1443 1443 1443 1443 1443 1442 1441 1441 1441 1440 1440 1439 1439 1439 1439 1439 1439 1438 1438 1438 1438 1438 1438 1438 1437 1437 1437 1437 1438 1438 1438 1438 1438 1437 1437 1437 1436 1436 1435 1435 1434
1441 1440 1441 1441 1441 1441 1441 1440 1440 1439 1439 1438 1438 1437 1437 1437 1436 1436 1436 1436 1436 1435 1435 1435 1435 1434 1434 1434 1434 1434 1434 1434 1434 1434 1434 1434 1434 1434 1434 1433 1433 1432 1432 1431
1439 1439 1439 1439 1439 1439 1438 1438 1437 1437 1437 1436 1436 1435 1435 1434 1434 1434 1434 1433 1433 1433 1433 1432 1432 1432 1432 1431 1431 1431 1431 1431 1431 1431 1431 1431 1431 1431 1430 1430 1430 1429 1428 1428
1436 1437 1437 1437 1437 1437 1436 1436 1435 1435 1435 1434 1433 1433 1433 1432 1432 1432 1431 1431 1430 1430 1430 1430 1430 1429 1429 1429 1428 1428 1428 1428 1428 1428 1428 1428 1428 1427 1427 1427 1426 1426 1425 1424
1435 1435 1435 1435 1435 1434 1434 1434 1433 1433 1433 1432 1432 1431 1431 1430 1430 1430 1429 1429 1429 1428 1428 1428 1428 1427 1427 1426 1426 1426 1426 1425 1425 1425 1425 1424 1424 1424 1424 1423 1423 1422 1421 1420
1433 1433 1433 1433 1433 1432 1432 1432 1431 1431 1431 1430 1430 1429 1428 1428 1428 1428 1427 1427 1427 1427 1426 1426 1425 1425 1424 1424 1424 1424 1423 1423 1423 1422 1422 1422 1421 1421 1421 1420 1419 1419 1418 1417
1431 1431 1431 1431 1431 1430 1430 1430 1430 1429 1429 1428 1428 1427 1427 1426 1426 1426 1425 1425 1425 1424 1424 1423 1423 1422 1422 1422 1421 1421 1421 1421 1420 1420 1420 1419 1419 1418 1418 1417 1416 1415 1415 1414
1430 1430 1429 1429 1429 1429 1429 1428 1428 1428 1427 1427 1426 1425 1425 1424 1424 1423 1423 1423 1422 1422 1421 1421 1420 1420 1420 1419 1419 1419 1419 1418 1418 1417 1417 1417 1416 1416 1415 1414 1413 1413 1412 1411
1428 1428 1428 1428 1428 1427 1427 1427 1427 1426 1426 1425 1425 1424 1423 1423 1422 1422 1421 1421 1420 1419 1419 1418 1418 1417 1417 1417 1416 1416 1416 1416 1415 1415 1415 1414 1414 1413 1412 1411 1411 1410 1409 1408
1427 1427 1426 1426 1426 1426 1425 1425 1425 1425 1424 1424 1423 1422 1422 1421 1420 1420 1419 1418 1418 1417 1416 1416 1415 1415 1414 1414 1414 1414 1414 1413 1413 1412 1412 1411 1411 1410 1409 1409 1408 1407 1406 1405
1426 1425 1425 1425 1425 1424 1424 1424 1423 1423 1422 1422 1421 1421 1420 1419 1419 1418 1417 1416 1415 1415 1414 1413 1413 1412 1412 1412 1412 1411 1411 1411 1411 1410 1410 1409 1408 1408 1407 1406 1405 1404 1403 1402
1424 1424 1424 1423 1423 1423 1423 1422 1422 1421 1421 1420 1419 1419 1418 1418 1417 1416 1415 1414 1413 1412 1412 1411 1411 1410 1410 1410 1410 1409 1409 1409 1409 1408 1407 1407 1406 1405 1404 1403 1402 1401 1400 1399